COSMOS 1275 DEB, 14408

Orbit data source: Space-Track

COSMOS 1275 DEB, 14408 is space debris in LEO originally from a launch on Thu, 04 Jun 1981 UTC launched from the Plesetsk Missile And Space Complex (PKMTR). Debris objects in space refer to the collection of defunct objects orbiting the Earth. Examples of debris include non-operational satellites, rocket bodies, and fragments generated from explosions, collisions, or faulty payload assembly.

Loading next visibility...
Identifier
14408, 1981-053JD
Orbit
LEO
Country
Flag of CISCIS
Related business
Manufacturer
Unknown
Mission
Spacecraft
Bus & Motor
Unknown
Mass
Unknown
Launch date (UTC)
1981-06-04 (45 years ago)
Launch vehicle
Unknown
Launch site
Plesetsk Missile And Space Complex (PKMTR)
Object type
Payload
Rocket body
Debris
Shape & HBR
Unknown shape, 0.1 m
Radar Cross Section
Small (<0.1 m²)

Expand to show TLE details & history
Last TLE update: 4 days ago

TLE from 4 days ago
0 COSMOS 1275 DEB
1 14408U 81053JD  26032.64855118  .00001053  00000-0  10737-2 0  9994
2 14408  82.9603 272.4282 0114974  45.6685 344.1724 13.72922935684864
Epoch: 2026-02-01T15:33Z
TLE epoch observation values (Epoch: 2026-02-01T15:33:54.821Z)
Latitude
29.28044°
Longitude
-88.95578°
Altitude
911.294 km
Speed
7.44 km/s
True Right ascension
18h 25m 30s
True Declination
29° 08' 13"
Sunlit
Object was in daylight at epoch
Visualization orbit readout
Latitude
Unknown
Longitude
Unknown
Altitude
Unknown
Speed
Unknown
Apparent Right ascension
Unknown
Apparent Declination
Unknown
Sunlit
N/A
Visualization observer readout
Local Sidereal Time
14:53:25
Azimuth
Unknown
Elevation
Unknown
Doppler factor
Unknown
Orbital elements
Apogee altitude
1,070.918 km
Perigee altitude
901.575 km
Semi-major axis
7,364.383 km
Eccentricity
0.0115
Inclination
82.9603°
RAAN
272.4282°
Arg. of periapsis
45.6685°
True anomaly
343.80803°
Mean anomaly
344.1724°
Eccentric anomaly
343.99072°
Mean motion
3.4343 °/min
Orbital period
104.82 mins
BSTAR
0.0010737
Loading maneuver chart data...
Computing Atmospheric mass density...
Loading historical data...
Loading historical data...
Loading historical data...
Loading historical data...
Loading historical data...
Loading historical data...
Loading historical data...

Documentation

Showing up to 5 results
|